7 * 24
多渠道服务支持
STARLINK-37101(NORAD编号68234)是美国太空探索技术公司(SpaceX)星链(Starlink)计划的卫星,属于星链低轨宽带互联网星座组成部分,运行于近地轨道。 该卫星在2025年12月出现异常,轨道高度骤降约4000米,发生解体并产生数十块空间碎片,随后与地面失去联系。SpaceX后续监测显示,卫星大致保持完整但处于翻滚状态,预计碎片会在数周内再入地球大气层烧毁,初步判定事故源于卫星内部问题,而非碰撞导致。
美国
(US)
| 数据来源 | 国际轨道数据 |
| 星历时间: | 2026-09-13T07:18:25+0800 10小时前 查看轨道信息 |
| 半长轴: | 6840.821km |
| 偏心率: | 0.0001217 |
| 轨道倾角: | 53.158° |
| 近地点辐角 | 96.713° |
| 升交点赤经 | 137.176° |
| 平近点角 | 263.401° |
| 近地点: | 461.851km |
| 远地点: | 463.517km |
| 周期: | 93.847分钟 |
| 每日圈数: | 15.344068 |